sat.trackr.live / text

‹ back to catalog

STARLINK-35888

NORAD 67190 · 2025-303AD

PAYLOAD ACTIVE UNKNOWN

§ Identity

Operator
Country
US
Launch date
2025-12-17
Launch site
AFETR
Launch vehicle
Mass (kg)
RCS (m²)

Purposes: comms

External: N2YO · Heavens-Above · Gunter

§ Orbital elements

Epoch: 2026-09-19T02:37:52.590144Z

Period
94.27 min
Inclination
43.0015°
Eccentricity
0.0001716
Mean motion
15.27588170 rev/d
Perigee alt
481.8 km
Apogee alt
484.2 km
Semi-major
6,861.2 km
B*
4.0221e-4
RAAN
298.6005°
Arg perigee
270.0145°
Mean anomaly
90.0510°
Rev number
4,231

§ Raw data

STARLINK-358881 67190U 25303AD  26262.10963646  .00010825  00000+0  40221-3 0  99962 67190  43.0015 298.6005 0001716 270.0145  90.0510 15.27588170 42311

JSON: /api/v1/satellites/67190 · /tle

For live sub-satellite position, see the globe view (requires WebGL).

§ Visibility from observer

Set your observer location to see the next 7 days of passes ≥ 10°. The values pass through the URL so the page stays shareable.

No JS? Fill the form by hand. The geolocation button needs JavaScript.